[[{"header":{"parameterUnit":"m.s-1","parameterCategory":1,"la1":30.2991,"la2":30.254,"lo1":-89.0895,"lo2":-89.0444,"dy":0.0017,"dx":0.0017,"nx":28,"ny":28,"refTime":"2024-02-13T03:00:00:Z","depth":0,"parameterNumber":2,"parameterNumberName":"U-component_of_WINDS"},"data":[0,0,0,0,0,0,0,0,0,0,0,0,0,0,0,0,0,0,0,0,0,0,0,0,0,0,0,0,0,0,0,0,0,0,0,0,0,0,0,0,0,0,0,0,0,0,0,0,0,0,0,0,0,0,0,0,0,0,1.5831,1.5832,0,1.5849,1.5849,1.5849,1.5829,1.5828,1.5827,1.5826,1.5844,1.5845,1.5846,0,0,0,0,0,0,0,0,0,0,0,0,0,1.5782,1.5783,1.5831,1.5832,1.5832,1.5849,1.5849,1.5849,1.5829,1.5828,1.5827,1.5826,1.5844,1.5845,1.5846,0,0,0,0,0,0,0,0,0,0,0,0,0,1.5802,1.5783,1.5831,1.5824,1.5823,1.5849,1.5849,1.5849,1.5829,1.5828,1.5827,1.5826,1.5843,1.5845,1.5847,1.588,0,0,1.5852,1.5853,0,0,0,0,0,0,0,0,1.5801,1.5803,1.5825,1.5824,1.5824,1.5835,1.5838,1.586,1.5829,1.5827,1.5826,1.5825,1.5842,1.5844,1.585,1.5881,1.5882,1.5852,1.5853,1.5854,1.5854,0,0,0,0,0,0,0,1.5799,1.5803,1.5838,1.5825,1.5825,1.582,1.5821,1.5842,1.5841,1.5827,1.5826,1.5828,1.5842,1.5848,1.585,1.5882,1.5852,1.5854,1.5855,1.5855,1.5943,1.5945,0,0,0,0,0,0,1.5799,1.5802,1.5838,1.5839,1.5809,1.5822,1.5823,1.5833,1.584,1.584,1.5829,1.5827,1.5845,1.5848,1.585,1.5891,1.5854,1.5856,1.5857,1.5942,1.5944,1.5945,0,0,0,0,0,0,1.5798,1.5802,1.5837,1.582,1.5824,1.5824,1.5834,1.5834,1.584,1.5842,1.5841,1.5835,1.5845,1.5848,1.5873,1.5891,1.5856,1.5858,1.5941,1.5943,1.5944,1.5972,0,0,0,0,0,0,1.5796,1.5802,1.5814,1.582,1.5825,1.5859,1.5836,1.5835,1.5843,1.5841,1.5848,1.5848,1.5844,1.5871,1.5875,1.5893,1.5859,1.5939,1.5941,1.5944,1.5969,1.5975,1.5979,0,0,0,0,0,1.5795,1.5821,1.5815,1.5819,1.584,1.586,1.5863,1.5858,1.5845,1.5857,1.5859,1.5848,1.5889,1.5873,1.5878,1.5897,1.5938,1.5941,1.5943,1.5967,1.5974,1.5979,0,0,0,0,0,0,1.5817,1.5822,1.5815,1.5844,1.5852,1.5857,1.5873,1.5865,1.5877,1.5874,1.5867,1.5869,1.5896,1.5899,1.5882,1.5931,1.5911,1.5915,1.5928,1.5934,1.5938,1.5937,1.5861,0,0,0,0,0,1.5825,1.5841,1.5844,1.5869,1.5874,1.5873,1.5881,1.5877,1.5885,1.5888,1.5891,1.5899,1.5914,1.5924,1.5938,1.597,1.5972,1.5985,1.599,1.5994,1.5998,1.6016,1.6022,1.5954,1.5954,1.5954,0,0,1.5842,1.5847,1.5857,1.5874,1.588,1.5897,1.5876,1.5894,1.5907,1.5891,1.5915,1.5918,1.5927,1.5956,1.5969,1.5959,1.6017,1.5998,1.6001,1.6002,1.602,1.6026,1.6032,1.5956,1.5956,1.5956,0,0,1.5882,1.5887,1.5909,1.5915,1.5925,1.5924,1.5929,1.5936,1.5937,1.5962,1.5951,1.5966,1.5991,1.5998,1.6005,1.605,1.604,1.6054,1.6079,1.6097,1.6103,1.6107,1.6124,1.613,1.6058,1.6058,1.6058,0,1.5902,1.5927,1.5921,1.5941,1.5949,1.5936,1.5959,1.5966,1.5979,1.5985,1.5974,1.6007,1.6012,1.6043,1.6054,1.606,1.6066,1.6053,1.6102,1.6107,1.6111,1.6127,1.6133,1.606,1.6059,1.6059,1.6059,0,1.5951,1.5969,1.5986,1.5999,1.601,1.6031,1.6029,1.604,1.6035,1.6036,1.6062,1.6068,1.6083,1.609,1.6085,1.6121,1.6115,1.6103,1.6083,1.612,1.6134,1.614,1.6062,1.6061,1.6061,1.606,0,0,1.6004,1.6016,1.6022,1.6029,1.6039,1.6052,1.6073,1.6089,1.6099,1.6109,1.6126,1.6149,1.6139,1.6147,1.6143,1.6159,1.6195,1.6145,1.6145,1.6155,1.6236,1.6244,1.6251,1.6189,1.619,1.6191,1.6235,0,1.6045,1.6081,1.6078,1.6112,1.6129,1.6118,1.6137,1.6145,1.6147,1.6161,1.6163,1.618,1.6165,1.6169,1.6185,1.6187,1.6211,1.6184,1.6206,1.6206,1.6204,1.6259,1.6268,1.6309,1.6241,1.6242,1.6242,0,1.6096,1.6109,1.6145,1.6154,1.6161,1.6178,1.6192,1.6206,1.6216,1.6216,1.6226,1.622,1.6242,1.6222,1.6252,1.6234,1.6243,1.6246,1.6247,1.6249,1.6226,1.6262,1.6322,1.6329,1.6251,1.6251,1.625,0,1.6132,1.6158,1.6184,1.6189,1.62,1.6212,1.6217,1.6226,1.6236,1.6249,1.6255,1.627,1.6278,1.6291,1.6289,1.6274,1.632,1.63,1.6321,1.6321,1.6331,1.6331,1.6394,1.6337,1.6337,1.6337,1.6336,0,1.6177,1.62,1.62,1.6216,1.6241,1.6238,1.6264,1.6267,1.6275,1.6292,1.6283,1.6299,1.6296,1.6312,1.6311,1.6337,1.634,1.6342,1.6341,1.6342,1.6342,1.6348,1.6345,1.6338,1.6338,1.6338,1.6337,0,1.6221,1.6222,1.6249,1.6258,1.626,1.6279,1.6286,1.6302,1.6303,1.6324,1.6329,1.6332,1.635,1.635,1.6371,1.637,1.6402,1.6398,1.6399,1.6398,1.642,1.6418,1.6488,1.6498,1.6435,1.6435,1.6436,0,1.625,1.6268,1.6278,1.6289,1.6295,1.6312,1.6323,1.632,1.6332,1.6345,1.6359,1.6377,1.6391,1.6421,1.6425,1.6441,1.6438,1.6461,1.644,1.6441,1.6438,1.6437,1.644,1.6465,1.6466,1.6467,1.6467,0,1.6302,1.6302,1.6317,1.6333,1.6345,1.6358,1.6369,1.6378,1.6377,1.6391,1.641,1.6421,1.6443,1.6461,1.6477,1.6482,1.6475,1.6474,1.648,1.6481,1.6481,1.6482,1.641,1.6472,1.6472,1.6471,1.6471,1.6471,1.6339,1.6355,1.6365,1.6383,1.6391,1.6403,1.6418,1.6422,1.6438,1.6455,1.6453,1.6475,1.6485,1.6506,1.6513,1.6531,1.6522,1.6531,1.6533,1.6535,1.6537,1.6479,1.6533,1.6533,1.6533,1.6533,1.6533,0,1.6391,1.6397,1.6414,1.643,1.6444,1.6437,1.6449,1.6462,1.6481,1.6492,1.6506,1.6529,1.6547,1.6552,1.657,1.6583,1.658,1.6587,1.6586,1.6588,1.6544,1.6537,1.6589,1.6589,1.6589,1.6589,1.6589,1.6589,1.6419,1.6445,1.6447,1.6478,1.6484,1.6505,1.6513,1.6524,1.6532,1.6558,1.6573,1.6577,1.6586,1.6604,1.6621,1.6622,1.6629,1.6638,1.6638,1.6597,1.6591,1.6585,1.6579,1.664,1.664,1.6681,1.6681,1.6682]},{"header":{"parameterUnit":"m.s-1","parameterCategory":1,"la1":30.2991,"la2":30.254,"lo1":-89.0895,"lo2":-89.0444,"dy":0.0017,"dx":0.0017,"nx":28,"ny":28,"refTime":"2024-02-13T03:00:00:Z","depth":0,"parameterNumber":3,"parameterNumberName":"V-component_of_WINDS"},"data":[0,0,0,0,0,0,0,0,0,0,0,0,0,0,0,0,0,0,0,0,0,0,0,0,0,0,0,0,0,0,0,0,0,0,0,0,0,0,0,0,0,0,0,0,0,0,0,0,0,0,0,0,0,0,0,0,0,0,-2.9728,-2.9728,0,-2.9778,-2.9778,-2.9779,-2.9776,-2.9776,-2.9775,-2.9774,-2.9823,-2.9825,-2.9827,0,0,0,0,0,0,0,0,0,0,0,0,0,-2.963,-2.9631,-2.9728,-2.9728,-2.9729,-2.9778,-2.9778,-2.9779,-2.9776,-2.9776,-2.9775,-2.9774,-2.9823,-2.9825,-2.9827,0,0,0,0,0,0,0,0,0,0,0,0,0,-2.9675,-2.9632,-2.9728,-2.9734,-2.9735,-2.9777,-2.9778,-2.9779,-2.9777,-2.9776,-2.9775,-2.9774,-2.9822,-2.9825,-2.9828,-2.9867,0,0,-2.9837,-2.9838,0,0,0,0,0,0,0,0,-2.9673,-2.9679,-2.9732,-2.9733,-2.9735,-2.977,-2.9762,-2.9809,-2.9777,-2.9761,-2.9774,-2.9773,-2.9806,-2.981,-2.9822,-2.9869,-2.9871,-2.9837,-2.9839,-2.984,-2.9841,0,0,0,0,0,0,0,-2.9669,-2.9677,-2.9747,-2.9733,-2.9734,-2.9734,-2.9739,-2.9771,-2.9789,-2.9762,-2.9762,-2.9768,-2.9807,-2.9819,-2.9823,-2.9872,-2.9837,-2.9839,-2.9841,-2.9842,-2.9957,-2.9959,0,0,0,0,0,0,-2.9665,-2.9674,-2.9746,-2.9749,-2.97,-2.9736,-2.9742,-2.9759,-2.9788,-2.9792,-2.9769,-2.9768,-2.9815,-2.982,-2.9825,-2.9876,-2.984,-2.9843,-2.9844,-2.9956,-2.9958,-2.9959,0,0,0,0,0,0,-2.9663,-2.9672,-2.9744,-2.9712,-2.9721,-2.9739,-2.9759,-2.9761,-2.9774,-2.9794,-2.9797,-2.9778,-2.9814,-2.9821,-2.9857,-2.9877,-2.9844,-2.9847,-2.9955,-2.9957,-2.9958,-2.9976,0,0,0,0,0,0,-2.966,-2.9671,-2.9686,-2.9712,-2.9722,-2.9776,-2.976,-2.9763,-2.9779,-2.9778,-2.9803,-2.9806,-2.9814,-2.9853,-2.986,-2.9881,-2.9849,-2.9953,-2.9956,-2.9958,-2.9973,-2.9978,-2.9982,0,0,0,0,0,-2.9657,-2.9688,-2.9687,-2.9695,-2.9742,-2.9777,-2.9783,-2.9791,-2.978,-2.9796,-2.9809,-2.9806,-2.9873,-2.9857,-2.9865,-2.9886,-2.9952,-2.9955,-2.9958,-2.9972,-2.9977,-2.9982,0,0,0,0,0,0,-2.9662,-2.9691,-2.969,-2.9731,-2.9752,-2.9776,-2.9796,-2.9796,-2.982,-2.9818,-2.9826,-2.9832,-2.987,-2.9881,-2.9862,-2.9928,-2.9911,-2.9916,-2.9919,-2.9924,-2.9928,-2.9926,-2.9851,0,0,0,0,0,-2.9668,-2.9695,-2.9718,-2.9751,-2.9762,-2.9778,-2.9793,-2.9798,-2.9819,-2.9828,-2.9844,-2.9865,-2.9891,-2.9908,-2.9933,-2.9974,-2.9981,-2.9993,-2.9997,-3.0001,-3.0005,-3.0031,-3.0038,-2.9969,-2.9969,-2.9969,0,0,-2.968,-2.97,-2.9715,-2.9753,-2.977,-2.9798,-2.9785,-2.9814,-2.9835,-2.9832,-2.9869,-2.9881,-2.9905,-2.9946,-2.9964,-2.9956,-3.0026,-3.0005,-3.0007,-3.001,-3.0035,-3.0042,-3.0047,-2.9971,-2.997,-2.997,0,0,-2.9718,-2.9734,-2.9765,-2.9783,-2.9809,-2.982,-2.9827,-2.9853,-2.9861,-2.9898,-2.9898,-2.9922,-2.9967,-2.9985,-3.0,-3.0046,-3.0045,-3.0054,-3.0077,-3.0102,-3.0107,-3.0112,-3.0132,-3.0138,-3.0058,-3.0058,-3.0058,0,-2.973,-2.9772,-2.9781,-2.9812,-2.9829,-2.9829,-2.9861,-2.9877,-2.991,-2.9922,-2.9913,-2.9971,-2.9987,-3.0033,-3.0045,-3.0056,-3.0066,-3.0052,-3.0106,-3.0111,-3.0116,-3.0134,-3.0141,-3.0059,-3.0059,-3.0059,-3.0059,0,-2.9787,-2.9817,-2.9838,-2.9872,-2.9892,-2.9923,-2.9937,-2.9955,-2.9959,-2.997,-3.0009,-3.0028,-3.0059,-3.0069,-3.0072,-3.0117,-3.0112,-3.0104,-3.0088,-3.0123,-3.0141,-3.0148,-3.0061,-3.0061,-3.006,-3.006,0,0,-2.9829,-2.9869,-2.9877,-2.9894,-2.9924,-2.9947,-2.9978,-3.0009,-3.0026,-3.0049,-3.0077,-3.0115,-3.0109,-3.0126,-3.0131,-3.0153,-3.0192,-3.0143,-3.0144,-3.0154,-3.0246,-3.0254,-3.0262,-3.0191,-3.0192,-3.0193,-3.0245,0,-2.9872,-2.9929,-2.9939,-2.9989,-3.0018,-3.0019,-3.0047,-3.0069,-3.0081,-3.0107,-3.0119,-3.0148,-3.0136,-3.0147,-3.0169,-3.0183,-3.0211,-3.0179,-3.0218,-3.022,-3.0215,-3.027,-3.0278,-3.0326,-3.0252,-3.0253,-3.0254,0,-2.9929,-2.9956,-3.001,-3.0039,-3.0051,-3.0076,-3.0107,-3.0131,-3.0156,-3.0163,-3.0184,-3.0186,-3.022,-3.0202,-3.0249,-3.0227,-3.0243,-3.0253,-3.0255,-3.0261,-3.024,-3.028,-3.0341,-3.0349,-3.0264,-3.0263,-3.0263,0,-2.9958,-3.0007,-3.0047,-3.006,-3.0094,-3.0112,-3.0127,-3.0151,-3.017,-3.0196,-3.0209,-3.0238,-3.0255,-3.0278,-3.0289,-3.0274,-3.0337,-3.0318,-3.0345,-3.0345,-3.036,-3.0359,-3.0427,-3.0366,-3.0366,-3.0366,-3.0365,0,-3.0007,-3.004,-3.0061,-3.0085,-3.0124,-3.0134,-3.0172,-3.0186,-3.0208,-3.0235,-3.0237,-3.0263,-3.0275,-3.0302,-3.0311,-3.0351,-3.0357,-3.0365,-3.0367,-3.0367,-3.0366,-3.0379,-3.0377,-3.0367,-3.0367,-3.0367,-3.0366,0,-3.0046,-3.0061,-3.0105,-3.0134,-3.0142,-3.0169,-3.0194,-3.0218,-3.0231,-3.0266,-3.0275,-3.0294,-3.0327,-3.034,-3.0379,-3.0385,-3.0432,-3.043,-3.0424,-3.0426,-3.0453,-3.0451,-3.0533,-3.0546,-3.0474,-3.0475,-3.0475,0,-3.0077,-3.0103,-3.0136,-3.0156,-3.0172,-3.0202,-3.0222,-3.0234,-3.0255,-3.0287,-3.0308,-3.0341,-3.0369,-3.0422,-3.0439,-3.047,-3.0471,-3.0497,-3.0475,-3.0475,-3.0475,-3.0474,-3.0478,-3.0502,-3.0503,-3.0504,-3.0504,0,-3.0131,-3.0138,-3.0167,-3.02,-3.0225,-3.0251,-3.0276,-3.0292,-3.0307,-3.0331,-3.0366,-3.0387,-3.0429,-3.0463,-3.0496,-3.0511,-3.0511,-3.0511,-3.0519,-3.052,-3.0517,-3.0522,-3.0439,-3.0509,-3.0509,-3.0508,-3.0508,-3.0508,-3.0169,-3.0194,-3.0222,-3.0256,-3.0276,-3.0301,-3.0326,-3.0342,-3.0372,-3.0408,-3.0413,-3.0451,-3.0477,-3.0521,-3.0538,-3.0568,-3.0561,-3.0572,-3.0576,-3.0579,-3.0583,-3.051,-3.0573,-3.0573,-3.0573,-3.0573,-3.0573,0,-3.0226,-3.0245,-3.0276,-3.0313,-3.0339,-3.0337,-3.0366,-3.0388,-3.0423,-3.0447,-3.0475,-3.0517,-3.055,-3.0571,-3.0605,-3.0625,-3.0626,-3.0634,-3.0634,-3.0638,-3.0585,-3.0576,-3.0633,-3.0633,-3.0633,-3.0633,-3.0633,-3.0633,-3.0259,-3.0302,-3.0313,-3.0367,-3.0385,-3.0423,-3.044,-3.0463,-3.0484,-3.053,-3.0559,-3.0572,-3.0596,-3.0632,-3.0663,-3.0669,-3.0682,-3.0691,-3.0696,-3.0647,-3.0641,-3.0635,-3.0627,-3.0693,-3.0693,-3.0746,-3.0747,-3.0747]}]]